K8MUD Weather Reports


Display with metric or nautical units.
time (UTC)temp
F
wind
direction
speed
MPH
gust
MPH
rain 1hr
in
rain 24hr
in
rain mn
in
humidity
%
barometer
mb
20260902123003 80 265 3.0 9.0 0.00 0.00 0.00 86 1013.8
20260902122656 79 267 3.0 9.0 0.00 0.00 0.00 86 1013.9
20260902122504 79 266 3.0 9.0 0.00 0.00 0.00 86 1013.9
20260902122156 79 260 3.0 7.0 0.00 0.00 0.00 87 1013.8
20260902122003 79 262 3.0 7.0 0.00 0.00 0.00 87 1013.8
20260902121656 79 259 2.0 7.0 0.00 0.00 0.00 87 1013.8
20260902121524 79 260 2.0 7.0 0.00 0.00 0.00 87 1013.8
20260902121156 78 258 2.0 6.0 0.00 0.00 0.00 87 1013.7
20260902121002 78 257 2.0 6.0 0.00 0.00 0.00 87 1013.7
20260902120656 78 258 2.0 6.0 0.00 0.00 0.00 87 1013.7
20260902120502 78 258 2.0 6.0 0.00 0.00 0.00 87 1013.7
20260902120156 78 263 2.0 6.0 0.00 0.00 0.00 87 1013.8
20260902120003 78 264 2.0 6.0 0.00 0.00 0.00 87 1013.8
20260902115656 78 267 2.0 8.0 0.00 0.00 0.00 87 1013.7
20260902115503 78 268 2.0 8.0 0.00 0.00 0.00 87 1013.7
20260902115156 78 265 2.0 8.0 0.00 0.00 0.00 87 1013.7
20260902115003 78 265 2.0 8.0 0.00 0.00 0.00 87 1013.6
20260902114656 78 261 1.0 7.0 0.00 0.00 0.00 87 1013.7
20260902114503 78 257 1.0 6.0 0.00 0.00 0.00 87 1013.7
20260902114156 78 258 2.0 6.0 0.00 0.00 0.00 87 1013.6
20260902114003 78 258 2.0 6.0 0.00 0.00 0.00 87 1013.7
20260902113656 78 262 1.0 4.0 0.00 0.00 0.00 87 1013.6
20260902113503 78 265 1.0 4.0 0.00 0.00 0.00 87 1013.5
20260902113155 78 265 2.0 7.0 0.00 0.00 0.00 87 1013.5
20260902113003 78 267 2.0 7.0 0.00 0.00 0.00 87 1013.7
20260902112655 78 264 3.0 10.0 0.00 0.00 0.00 87 1013.8
20260902112503 78 264 3.0 10.0 0.00 0.00 0.00 87 1013.9
20260902112155 78 267 3.0 10.0 0.00 0.00 0.00 87 1013.9
20260902112006 78 268 3.0 10.0 0.00 0.00 0.00 86 1013.9
20260902111655 78 270 3.0 7.0 0.00 0.00 0.00 86 1014.0
20260902111503 78 271 3.0 7.0 0.00 0.00 0.00 86 1014.0
20260902111155 78 275 2.0 7.0 0.00 0.00 0.00 86 1014.0
20260902111003 78 274 2.0 7.0 0.00 0.00 0.00 86 1014.0
20260902110655 78 277 3.0 7.0 0.00 0.00 0.00 86 1013.9
20260902110503 78 275 3.0 7.0 0.00 0.00 0.00 86 1013.9
20260902110155 78 280 3.0 8.0 0.00 0.00 0.00 86 1013.9
20260902110008 78 279 3.0 8.0 0.00 0.00 0.00 86 1013.9
20260902105655 78 279 2.0 8.0 0.00 0.00 0.00 86 1013.8
20260902105503 78 282 2.0 8.0 0.00 0.00 0.00 86 1013.8
20260902105155 78 266 2.0 7.0 0.00 0.00 0.00 86 1013.7
20260902105003 78 267 2.0 7.0 0.00 0.00 0.00 86 1013.7
20260902104655 78 262 2.0 7.0 0.00 0.00 0.00 86 1013.6
20260902104503 78 260 2.0 7.0 0.00 0.00 0.00 86 1013.6
20260902104155 78 261 2.0 6.0 0.00 0.00 0.00 86 1013.6
20260902104003 78 260 2.0 6.0 0.00 0.00 0.00 86 1013.6
20260902103655 78 263 2.0 6.0 0.00 0.00 0.00 86 1013.7
20260902103506 78 263 2.0 6.0 0.00 0.00 0.00 86 1013.7
20260902103154 79 254 1.0 6.0 0.00 0.00 0.00 86 1013.6
20260902103004 79 251 1.0 6.0 0.00 0.00 0.00 87 1013.5
20260902102654 79 231 1.0 3.0 0.00 0.00 0.00 87 1013.6
20260902102503 79 231 1.0 3.0 0.00 0.00 0.00 87 1013.5
20260902102154 79 253 1.0 7.0 0.00 0.00 0.00 87 1013.6
20260902102003 79 259 1.0 7.0 0.00 0.00 0.00 87 1013.5
20260902101654 79 258 1.0 7.0 0.00 0.00 0.00 87 1013.5
20260902101503 79 259 1.0 7.0 0.00 0.00 0.00 87 1013.4
20260902101154 79 242 1.0 4.0 0.00 0.00 0.00 87 1013.4
20260902101004 79 241 1.0 4.0 0.00 0.00 0.00 87 1013.4
20260902100654 79 246 1.0 3.0 0.00 0.00 0.00 87 1013.3
20260902100527 79 248 1.0 3.0 0.00 0.00 0.00 87 1013.3
20260902100154 79 261 1.0 4.0 0.00 0.00 0.00 86 1013.5
20260902100003 79 263 1.0 4.0 0.00 0.00 0.00 86 1013.5
20260902095654 79 274 0.0 4.0 0.00 0.00 0.00 86 1013.4
20260902095503 79 286 0.0 2.0 0.00 0.00 0.00 86 1013.4
20260902095154 79 273 1.0 6.0 0.00 0.00 0.00 86 1013.4
20260902095004 79 270 1.0 7.0 0.00 0.00 0.00 86 1013.4
20260902094654 79 270 3.0 9.0 0.00 0.00 0.00 86 1013.4
20260902094503 79 268 3.0 9.0 0.00 0.00 0.00 86 1013.4
20260902094154 79 265 3.0 9.0 0.00 0.00 0.00 87 1013.4
20260902094024 79 265 3.0 9.0 0.00 0.00 0.00 87 1013.4
20260902093654 79 258 1.0 8.0 0.00 0.00 0.00 87 1013.4
20260902093503 79 257 1.0 8.0 0.00 0.00 0.00 87 1013.4
20260902093154 79 262 1.0 4.0 0.00 0.00 0.00 87 1013.4
20260902093004 79 262 1.0 4.0 0.00 0.00 0.00 87 1013.4
20260902092654 79 263 2.0 9.0 0.00 0.00 0.00 87 1013.5
20260902092503 79 263 2.0 9.0 0.00 0.00 0.00 87 1013.5
20260902092154 78 261 2.0 9.0 0.00 0.00 0.00 87 1013.5
20260902092003 78 259 2.0 9.0 0.00 0.00 0.00 87 1013.5
20260902091654 78 252 1.0 6.0 0.00 0.00 0.00 87 1013.5
20260902091524 78 251 1.0 6.0 0.00 0.00 0.00 87 1013.5
20260902091153 78 232 0.0 2.0 0.00 0.00 0.00 86 1013.4
20260902091003 78 232 0.0 2.0 0.00 0.00 0.00 87 1013.4
20260902090653 78 229 1.0 3.0 0.00 0.00 0.00 86 1013.4
20260902090503 78 229 1.0 3.0 0.00 0.00 0.00 86 1013.4
20260902090153 78 231 1.0 3.0 0.00 0.00 0.00 86 1013.4
20260902090005 78 231 1.0 3.0 0.00 0.00 0.00 86 1013.3
20260902085653 78 242 1.0 4.0 0.00 0.00 0.00 86 1013.3
20260902085503 78 243 1.0 4.0 0.00 0.00 0.00 86 1013.3
20260902085153 78 251 1.0 4.0 0.00 0.00 0.00 86 1013.3
20260902085003 78 251 1.0 4.0 0.00 0.00 0.00 86 1013.3
20260902084653 78 252 1.0 4.0 0.00 0.00 0.00 86 1013.4
20260902084503 78 252 1.0 4.0 0.00 0.00 0.00 86 1013.4
20260902084153 78 252 1.0 4.0 0.00 0.00 0.00 86 1013.3
20260902084025 78 252 1.0 4.0 0.00 0.00 0.00 86 1013.4
20260902083653 78 252 1.0 3.0 0.00 0.00 0.00 85 1013.4
20260902083503 78 252 1.0 3.0 0.00 0.00 0.00 85 1013.4
20260902083153 78 251 1.0 3.0 0.00 0.00 0.00 85 1013.4
20260902083003 78 252 1.0 4.0 0.00 0.00 0.00 85 1013.3
20260902082653 78 249 1.0 6.0 0.00 0.00 0.00 85 1013.4
20260902082525 78 248 1.0 6.0 0.00 0.00 0.00 85 1013.4
20260902082153 78 234 1.0 6.0 0.00 0.00 0.00 85 1013.5
20260902082006 78 228 1.0 6.0 0.00 0.00 0.00 85 1013.5
20260902081652 79 201 1.0 3.0 0.00 0.00 0.00 85 1013.3
20260902081503 79 194 1.0 3.0 0.00 0.00 0.00 85 1013.3
20260902081152 79 192 1.0 4.0 0.00 0.00 0.00 85 1013.2
20260902081025 79 191 1.0 4.0 0.00 0.00 0.00 85 1013.2
20260902080652 79 203 1.0 4.0 0.00 0.00 0.00 85 1013.1
20260902080525 79 204 1.0 4.0 0.00 0.00 0.00 85 1013.1
20260902080152 79 230 1.0 3.0 0.00 0.00 0.00 85 1013.2
20260902080003 79 237 1.0 3.0 0.00 0.00 0.00 85 1013.1
20260902075652 79 250 0.0 3.0 0.00 0.00 0.00 84 1013.1
20260902075504 79 250 0.0 3.0 0.00 0.00 0.00 84 1013.1
20260902075152 79 250 0.0 2.0 0.00 0.00 0.00 84 1013.3
20260902075004 79 250 0.0 2.0 0.00 0.00 0.00 84 1013.3
20260902074652 79 250 0.0 1.0 0.00 0.00 0.00 84 1013.3
20260902074503 79 250 0.0 1.0 0.00 0.00 0.00 84 1013.3
20260902074152 79 250 0.0 1.0 0.00 0.00 0.00 84 1013.3
20260902074006 79 250 0.0 1.0 0.00 0.00 0.00 84 1013.3
20260902073652 79 250 0.0 1.0 0.00 0.00 0.00 83 1013.4
20260902073503 79 250 0.0 1.0 0.00 0.00 0.00 83 1013.4
20260902073152 79 250 0.0 2.0 0.00 0.00 0.00 83 1013.3
20260902073004 79 250 0.0 2.0 0.00 0.00 0.00 83 1013.3
20260902072652 79 250 0.0 2.0 0.00 0.00 0.00 83 1013.3
20260902072503 79 250 0.0 2.0 0.00 0.00 0.00 83 1013.3
20260902072152 79 250 0.0 2.0 0.00 0.00 0.00 83 1013.2
20260902072004 79 250 0.0 2.0 0.00 0.00 0.00 83 1013.2
20260902071652 79 250 0.0 3.0 0.00 0.00 0.00 83 1013.3
20260902071503 79 250 0.0 3.0 0.00 0.00 0.00 83 1013.2
20260902071151 79 250 0.0 3.0 0.00 0.00 0.00 83 1013.2
20260902071003 79 250 0.0 3.0 0.00 0.00 0.00 83 1013.3
20260902070651 79 250 0.0 2.0 0.00 0.00 0.00 83 1013.3
20260902070504 79 250 0.0 2.0 0.00 0.00 0.00 83 1013.3
20260902070151 79 251 0.0 2.0 0.00 0.00 0.00 83 1013.3
20260902070005 79 251 0.0 2.0 0.00 0.00 0.00 83 1013.3
20260902065651 79 258 0.0 2.0 0.00 0.00 0.00 83 1013.2
20260902065524 79 258 0.0 2.0 0.00 0.00 0.00 83 1013.1
20260902065151 79 262 0.0 2.0 0.00 0.00 0.00 83 1013.2
20260902065003 79 262 0.0 2.0 0.00 0.00 0.00 83 1013.2
20260902064651 79 262 0.0 1.0 0.00 0.00 0.00 83 1013.3
20260902064504 79 262 0.0 2.0 0.00 0.00 0.00 83 1013.3
20260902064151 79 262 0.0 2.0 0.00 0.00 0.00 83 1013.4
20260902064025 79 262 0.0 2.0 0.00 0.00 0.00 83 1013.3
20260902063651 79 262 0.0 2.0 0.00 0.00 0.00 83 1013.3
20260902063506 79 262 0.0 1.0 0.00 0.00 0.00 83 1013.4
20260902063151 79 0 0.0 0.0 0.00 0.00 0.00 83 1013.4
20260902063004 79 0 0.0 0.0 0.00 0.00 0.00 83 1013.5
20260902062651 79 0 0.0 0.0 0.00 0.00 0.00 83 1013.6
20260902062525 79 0 0.0 0.0 0.00 0.00 0.00 83 1013.6
20260902062151 79 0 0.0 0.0 0.00 0.00 0.00 83 1013.7
20260902062024 79 0 0.0 0.0 0.00 0.00 0.00 83 1013.7
20260902061651 79 0 0.0 0.0 0.00 0.00 0.00 83 1013.7
20260902061504 79 0 0.0 0.0 0.00 0.00 0.00 83 1013.7
20260902061151 79 0 0.0 0.0 0.00 0.00 0.00 83 1013.8
20260902061004 79 0 0.0 0.0 0.00 0.00 0.00 83 1013.8
20260902060651 79 0 0.0 0.0 0.00 0.00 0.00 83 1013.9
20260902060504 79 0 0.0 0.0 0.00 0.00 0.00 83 1013.9
20260902060150 79 0 0.0 0.0 0.00 0.00 0.00 83 1013.9
20260902060006 79 0 0.0 0.0 0.00 0.00 0.00 83 1013.9
20260902055650 79 0 0.0 0.0 0.00 0.00 0.00 83 1014.0
20260902055504 79 0 0.0 0.0 0.00 0.00 0.00 83 1014.0
20260902055150 79 0 0.0 0.0 0.00 0.00 0.00 83 1014.1
20260902055004 79 0 0.0 0.0 0.00 0.00 0.00 83 1014.1
20260902054650 79 0 0.0 0.0 0.00 0.00 0.00 83 1014.1
20260902054503 79 0 0.0 0.0 0.00 0.00 0.00 83 1014.1
20260902054150 79 0 0.0 0.0 0.00 0.00 0.00 83 1014.1
20260902054004 79 0 0.0 0.0 0.00 0.00 0.00 83 1014.0
20260902053650 79 0 0.0 0.0 0.00 0.00 0.00 83 1014.0
20260902053504 79 0 0.0 0.0 0.00 0.00 0.00 83 1014.1
20260902053150 79 0 0.0 0.0 0.00 0.00 0.00 83 1014.1
20260902053003 79 0 0.0 0.0 0.00 0.00 0.00 83 1014.1
20260902052623 79 0 0.0 0.0 0.00 0.00 0.00 83 1014.1
20260902052503 79 0 0.0 0.0 0.00 0.00 0.00 83 1014.1
20260902052122 79 0 0.0 0.0 0.00 0.00 0.00 83 1014.1
20260902052024 79 0 0.0 0.0 0.00 0.00 0.00 83 1014.1
20260902051622 79 0 0.0 0.0 0.00 0.00 0.00 83 1014.2
20260902051503 79 0 0.0 0.0 0.00 0.00 0.00 83 1014.2
20260902051122 79 0 0.0 0.0 0.00 0.00 0.00 83 1014.2
20260902051003 79 0 0.0 0.0 0.00 0.00 0.00 83 1014.2
20260902050622 79 0 0.0 0.0 0.00 0.00 0.00 83 1014.2
20260902050503 79 0 0.0 0.0 0.00 0.00 0.00 83 1014.2
20260902050122 79 0 0.0 0.0 0.00 0.00 0.00 83 1014.2
20260902050008 79 0 0.0 0.0 0.00 0.00 0.00 83 1014.2
20260902045622 79 0 0.0 0.0 0.00 0.00 0.00 83 1014.1
20260902045503 79 0 0.0 0.0 0.00 0.00 0.00 82 1014.1
20260902045122 79 0 0.0 0.0 0.00 0.00 0.00 82 1014.1
20260902045003 79 0 0.0 0.0 0.00 0.00 0.00 82 1014.1
20260902044622 79 0 0.0 0.0 0.00 0.00 0.00 82 1014.1
20260902044503 79 0 0.0 0.0 0.00 0.00 0.00 82 1014.2
20260902044122 79 0 0.0 0.0 0.00 0.00 0.00 82 1014.2
20260902044003 79 0 0.0 0.0 0.00 0.00 0.00 82 1014.2
20260902043622 79 0 0.0 0.0 0.00 0.00 0.00 82 1014.1
20260902043523 79 0 0.0 0.0 0.00 0.00 0.00 82 1014.0
20260902043122 80 0 0.0 0.0 0.00 0.00 0.00 81 1014.1
20260902043003 80 0 0.0 0.0 0.00 0.00 0.00 81 1014.1
20260902042622 80 0 0.0 0.0 0.00 0.00 0.00 81 1014.1
20260902042524 80 0 0.0 0.0 0.00 0.00 0.00 81 1014.1
20260902042122 80 0 0.0 0.0 0.00 0.00 0.00 81 1014.0
20260902042003 80 0 0.0 0.0 0.00 0.00 0.00 80 1014.0
20260902041622 80 0 0.0 0.0 0.00 0.00 0.00 80 1014.0
20260902041504 80 0 0.0 0.0 0.00 0.00 0.00 80 1014.0
20260902041121 80 0 0.0 0.0 0.00 0.00 0.00 80 1014.0
20260902041003 80 0 0.0 0.0 0.00 0.00 0.00 80 1014.0
20260902040621 80 0 0.0 0.0 0.00 0.00 0.00 80 1013.9
20260902040503 80 0 0.0 0.0 0.00 0.00 0.00 80 1013.9
20260902040121 80 0 0.0 0.0 0.00 0.00 0.00 80 1014.0
20260902040003 80 0 0.0 0.0 0.00 0.00 0.00 80 1014.0
20260902035621 80 0 0.0 0.0 0.00 0.00 0.00 79 1014.0
20260902035503 80 0 0.0 0.0 0.00 0.00 0.00 79 1014.0
20260902035121 81 0 0.0 0.0 0.00 0.00 0.00 79 1014.0
20260902035003 81 0 0.0 0.0 0.00 0.00 0.00 79 1014.0
20260902034621 81 0 0.0 0.0 0.00 0.00 0.00 79 1014.0
20260902034525 81 0 0.0 0.0 0.00 0.00 0.00 79 1014.0
20260902034121 81 0 0.0 0.0 0.00 0.00 0.00 79 1013.9
20260902034003 81 0 0.0 0.0 0.00 0.00 0.00 78 1013.9
20260902033621 81 0 0.0 0.0 0.00 0.00 0.00 78 1013.8
20260902033506 81 0 0.0 0.0 0.00 0.00 0.00 78 1013.8
20260902033121 81 0 0.0 0.0 0.00 0.00 0.00 78 1013.6
20260902033003 81 0 0.0 0.0 0.00 0.00 0.00 78 1013.6
20260902032621 81 0 0.0 0.0 0.00 0.00 0.00 78 1013.7
20260902032504 81 0 0.0 0.0 0.00 0.00 0.00 78 1013.7
20260902032121 82 0 0.0 0.0 0.00 0.00 0.00 78 1013.6
20260902032006 82 0 0.0 0.0 0.00 0.00 0.00 78 1013.6
20260902031621 82 0 0.0 0.0 0.00 0.00 0.00 77 1013.6
20260902031503 82 0 0.0 0.0 0.00 0.00 0.00 77 1013.6
20260902031120 82 0 0.0 0.0 0.00 0.00 0.00 77 1013.6
20260902031025 82 0 0.0 0.0 0.00 0.00 0.00 77 1013.6
20260902030620 82 0 0.0 0.0 0.00 0.00 0.00 77 1013.5
20260902030504 82 0 0.0 0.0 0.00 0.00 0.00 77 1013.5
20260902030120 82 0 0.0 0.0 0.00 0.00 0.00 77 1013.5
20260902030024 82 0 0.0 0.0 0.00 0.00 0.00 77 1013.6
20260902025620 82 0 0.0 0.0 0.00 0.00 0.00 77 1013.6
20260902025503 82 0 0.0 0.0 0.00 0.00 0.00 76 1013.6
20260902025120 82 0 0.0 0.0 0.00 0.00 0.00 76 1013.5
20260902025003 83 0 0.0 0.0 0.00 0.00 0.00 76 1013.5
20260902024620 83 0 0.0 0.0 0.00 0.00 0.00 76 1013.5
20260902024504 83 0 0.0 0.0 0.00 0.00 0.00 76 1013.6
20260902024120 83 0 0.0 0.0 0.00 0.00 0.00 76 1013.6
20260902024003 83 0 0.0 0.0 0.00 0.00 0.00 76 1013.5
20260902023620 83 0 0.0 0.0 0.00 0.00 0.00 76 1013.5
20260902023527 83 0 0.0 0.0 0.00 0.00 0.00 75 1013.6
20260902023120 83 0 0.0 0.0 0.00 0.00 0.00 75 1013.4
20260902023003 83 262 0.0 1.0 0.00 0.00 0.00 75 1013.4
20260902022620 84 262 0.0 3.0 0.00 0.00 0.00 75 1013.5
20260902022525 84 262 0.0 3.0 0.00 0.00 0.00 75 1013.5
20260902022120 84 263 1.0 3.0 0.00 0.00 0.00 75 1013.5
20260902022027 84 263 1.0 4.0 0.00 0.00 0.00 75 1013.5
20260902021620 84 260 2.0 7.0 0.00 0.00 0.00 75 1013.5
20260902021503 84 262 2.0 7.0 0.00 0.00 0.00 74 1013.5
20260902021120 84 264 3.0 7.0 0.00 0.00 0.00 74 1013.5
20260902021003 84 265 3.0 7.0 0.00 0.00 0.00 74 1013.5
20260902020620 84 277 3.0 7.0 0.00 0.00 0.00 74 1013.4
20260902020503 84 279 3.0 7.0 0.00 0.00 0.00 74 1013.4
20260902020120 84 280 3.0 7.0 0.00 0.00 0.00 74 1013.5
20260902020004 84 279 3.0 7.0 0.00 0.00 0.00 74 1013.6
20260902015620 84 273 3.0 7.0 0.00 0.00 0.00 74 1013.6
20260902015504 84 271 3.0 7.0 0.00 0.00 0.00 74 1013.6
20260902015120 84 279 2.0 6.0 0.00 0.00 0.00 74 1013.6
20260902015003 84 284 2.0 6.0 0.00 0.00 0.00 74 1013.5
20260902014619 85 281 3.0 7.0 0.00 0.00 0.00 74 1013.5
20260902014524 85 278 3.0 7.0 0.00 0.00 0.00 74 1013.5
20260902014119 85 274 4.0 9.0 0.00 0.00 0.00 73 1013.5
20260902014004 85 272 4.0 10.0 0.00 0.00 0.00 73 1013.5
20260902013619 85 266 3.0 10.0 0.00 0.00 0.00 73 1013.6
20260902013506 85 268 3.0 10.0 0.00 0.00 0.00 73 1013.6
20260902013120 85 264 3.0 10.0 0.00 0.00 0.00 73 1013.6
20260902013003 85 265 3.0 9.0 0.00 0.00 0.00 73 1013.6
20260902012619 85 275 3.0 9.0 0.00 0.00 0.00 73 1013.6
20260902012504 85 274 3.0 9.0 0.00 0.00 0.00 73 1013.6
20260902012119 85 274 4.0 12.0 0.00 0.00 0.00 73 1013.5
20260902012003 85 272 4.0 12.0 0.00 0.00 0.00 73 1013.5
20260902011619 85 264 5.0 12.0 0.00 0.00 0.00 72 1013.5
20260902011503 85 263 5.0 12.0 0.00 0.00 0.00 72 1013.4
20260902011119 85 260 5.0 12.0 0.00 0.00 0.00 72 1013.5
20260902011003 85 258 5.0 12.0 0.00 0.00 0.00 72 1013.5
20260902010619 85 264 4.0 11.0 0.00 0.00 0.00 72 1013.4
20260902010504 85 267 4.0 10.0 0.00 0.00 0.00 72 1013.4
20260902010119 85 269 4.0 10.0 0.00 0.00 0.00 72 1013.4
20260902010003 85 272 4.0 10.0 0.00 0.00 0.00 72 1013.4
20260902005619 85 269 4.0 11.0 0.00 0.00 0.00 72 1013.2
20260902005503 85 269 4.0 11.0 0.00 0.00 0.00 72 1013.2
20260902005119 86 265 4.0 11.0 0.00 0.00 0.00 73 1013.3
20260902005004 86 263 4.0 11.0 0.00 0.00 0.00 73 1013.3
20260902004619 86 264 3.0 10.0 0.00 0.00 0.00 73 1013.1
20260902004524 86 261 3.0 10.0 0.00 0.00 0.00 73 1013.1
20260902004049 86 266 3.0 10.0 0.00 0.00 0.00 73 1013.1
20260902004001 86 266 3.0 10.0 0.00 0.00 0.00 73 1013.0
20260902003548 86 268 3.0 8.0 0.00 0.00 0.00 73 1013.0
20260902003522 86 267 3.0 8.0 0.00 0.00 0.00 73 1013.0
20260902003048 86 261 5.0 11.0 0.00 0.00 0.00 73 1012.9
20260902003001 86 261 5.0 11.0 0.00 0.00 0.00 73 1012.9
20260902002548 86 262 5.0 11.0 0.00 0.00 0.00 74 1013.0
20260902002501 86 262 4.0 11.0 0.00 0.00 0.00 74 1013.0
20260902002048 86 267 4.0 11.0 0.00 0.00 0.00 74 1012.9
20260902002004 86 267 4.0 11.0 0.00 0.00 0.00 74 1012.9
20260902001548 86 265 4.0 10.0 0.00 0.00 0.00 74 1012.9
20260902001523 86 265 4.0 10.0 0.00 0.00 0.00 74 1012.9
20260902001048 87 262 4.0 13.0 0.00 0.00 0.00 74 1012.8
20260902001004 87 262 4.0 13.0 0.00 0.00 0.00 74 1012.8
20260902000548 87 258 4.0 13.0 0.00 0.00 0.00 74 1012.8
20260902000501 87 258 4.0 13.0 0.00 0.00 0.00 74 1012.8
20260902000048 87 259 4.0 12.0 0.00 0.00 0.00 74 1012.8
20260902000026 87 259 4.0 12.0 0.00 0.00 0.00 74 1012.8
20260901235548 88 260 5.0 15.0 0.00 0.00 0.00 74 1012.8
20260901235501 88 260 5.0 15.0 0.00 0.00 0.00 74 1012.8
20260901235048 88 254 5.0 15.0 0.00 0.00 0.00 74 1012.8
20260901235025 88 254 5.0 15.0 0.00 0.00 0.00 74 1012.8
20260901234548 88 255 5.0 16.0 0.00 0.00 0.00 73 1012.6
20260901234501 88 255 5.0 16.0 0.00 0.00 0.00 73 1012.6
20260901234048 89 254 5.0 16.0 0.00 0.00 0.00 72 1012.7
20260901234005 89 254 5.0 16.0 0.00 0.00 0.00 72 1012.7
20260901233548 89 237 4.0 12.0 0.00 0.00 0.00 72 1012.9
20260901233522 89 237 4.0 12.0 0.00 0.00 0.00 72 1012.9
20260901233048 90 235 4.0 10.0 0.00 0.00 0.00 71 1012.7
20260901233001 90 235 4.0 10.0 0.00 0.00 0.00 71 1012.7
20260901232548 91 254 4.0 10.0 0.00 0.00 0.00 70 1012.7
20260901232501 91 254 4.0 10.0 0.00 0.00 0.00 70 1012.7
20260901232048 91 252 4.0 10.0 0.00 0.00 0.00 68 1012.6
20260901232004 91 252 4.0 10.0 0.00 0.00 0.00 68 1012.6
20260901231547 92 260 4.0 11.0 0.00 0.00 0.00 67 1012.7
20260901231523 92 260 4.0 11.0 0.00 0.00 0.00 67 1012.7
20260901231047 93 275 5.0 11.0 0.00 0.00 0.00 65 1012.6
20260901231004 93 275 5.0 11.0 0.00 0.00 0.00 65 1012.6
20260901230547 93 281 4.0 8.0 0.00 0.00 0.00 62 1012.6
20260901230522 93 280 4.0 8.0 0.00 0.00 0.00 62 1012.6
20260901230047 93 269 4.0 11.0 0.00 0.00 0.00 61 1012.6
20260901230002 93 269 4.0 11.0 0.00 0.00 0.00 61 1012.6
20260901225547 93 264 5.0 12.0 0.00 0.00 0.00 61 1012.6
20260901225501 93 264 5.0 12.0 0.00 0.00 0.00 61 1012.6
20260901225047 94 270 5.0 12.0 0.00 0.00 0.00 60 1012.6
20260901225001 94 269 5.0 12.0 0.00 0.00 0.00 60 1012.6
20260901224547 94 259 4.0 12.0 0.00 0.00 0.00 60 1012.7
20260901224502 94 259 4.0 12.0 0.00 0.00 0.00 60 1012.7
20260901224047 94 255 3.0 8.0 0.00 0.00 0.00 61 1012.6
20260901224002 94 256 3.0 8.0 0.00 0.00 0.00 61 1012.6
20260901223547 94 265 4.0 10.0 0.00 0.00 0.00 60 1012.6
20260901223501 94 265 4.0 10.0 0.00 0.00 0.00 60 1012.6
20260901223047 94 259 4.0 10.0 0.00 0.00 0.00 60 1012.6
20260901223002 94 259 4.0 10.0 0.00 0.00 0.00 60 1012.6
20260901222547 94 255 4.0 11.0 0.00 0.00 0.00 61 1012.6
20260901222502 94 256 4.0 11.0 0.00 0.00 0.00 61 1012.6
20260901222047 94 268 4.0 12.0 0.00 0.00 0.00 61 1012.4
20260901222001 94 269 4.0 12.0 0.00 0.00 0.00 61 1012.4
20260901221547 94 278 3.0 12.0 0.00 0.00 0.00 62 1012.6
20260901221523 94 278 3.0 12.0 0.00 0.00 0.00 63 1012.6
20260901221046 93 256 3.0 9.0 0.00 0.00 0.00 65 1012.4
20260901221022 93 256 3.0 9.0 0.00 0.00 0.00 65 1012.4
20260901220546 93 238 3.0 9.0 0.00 0.00 0.00 63 1012.4
20260901220525 93 238 3.0 9.0 0.00 0.00 0.00 63 1012.4
20260901220046 93 227 2.0 4.0 0.00 0.00 0.00 64 1012.6
20260901220022 93 228 2.0 4.0 0.00 0.00 0.00 64 1012.6
20260901215546 93 224 2.0 6.0 0.00 0.00 0.00 64 1012.4
20260901215502 93 223 2.0 6.0 0.00 0.00 0.00 64 1012.4
20260901215046 94 193 2.0 6.0 0.00 0.00 0.00 64 1012.5
20260901215001 94 193 2.0 6.0 0.00 0.00 0.00 64 1012.5
20260901214546 94 195 2.0 7.0 0.00 0.00 0.00 63 1012.5
20260901214505 94 195 2.0 7.0 0.00 0.00 0.00 63 1012.5
20260901214046 95 254 4.0 11.0 0.00 0.00 0.00 63 1012.5
20260901214001 95 254 4.0 11.0 0.00 0.00 0.00 63 1012.5
20260901213546 95 276 5.0 11.0 0.00 0.00 0.00 61 1012.5
20260901213502 95 276 5.0 11.0 0.00 0.00 0.00 61 1012.5
20260901213046 96 279 4.0 10.0 0.00 0.00 0.00 58 1012.5
20260901213001 96 279 4.0 10.0 0.00 0.00 0.00 58 1012.5
20260901212546 96 274 3.0 7.0 0.00 0.00 0.00 58 1012.5
20260901212522 96 274 3.0 7.0 0.00 0.00 0.00 58 1012.5
20260901212046 96 272 4.0 10.0 0.00 0.00 0.00 58 1012.6
20260901212002 96 272 4.0 10.0 0.00 0.00 0.00 58 1012.6
20260901211546 96 281 6.0 13.0 0.00 0.00 0.00 57 1012.8
20260901211523 96 281 6.0 13.0 0.00 0.00 0.00 57 1012.8
20260901211046 96 279 5.0 13.0 0.00 0.00 0.00 57 1012.7
20260901211001 96 279 5.0 13.0 0.00 0.00 0.00 57 1012.7
20260901210546 96 269 4.0 9.0 0.00 0.00 0.00 57 1012.6
20260901210501 96 269 4.0 9.0 0.00 0.00 0.00 57 1012.6
20260901210046 96 256 5.0 13.0 0.00 0.00 0.00 57 1012.8
20260901210023 96 256 5.0 13.0 0.00 0.00 0.00 57 1012.8
20260901205545 97 255 5.0 13.0 0.00 0.00 0.00 56 1012.9
20260901205502 97 256 5.0 13.0 0.00 0.00 0.00 56 1012.9
20260901205045 97 267 4.0 11.0 0.00 0.00 0.00 56 1012.9
20260901205001 97 267 4.0 11.0 0.00 0.00 0.00 56 1012.9
20260901204545 97 273 5.0 11.0 0.00 0.00 0.00 56 1012.8
20260901204502 97 273 5.0 11.0 0.00 0.00 0.00 56 1012.8
20260901204045 97 275 7.0 14.0 0.00 0.00 0.00 56 1012.8
20260901204002 97 275 7.0 14.0 0.00 0.00 0.00 56 1012.8
20260901203545 97 273 8.0 14.0 0.00 0.00 0.00 56 1012.8
20260901203501 97 273 8.0 14.0 0.00 0.00 0.00 56 1012.8
20260901203045 98 271 7.0 13.0 0.00 0.00 0.00 54 1012.6
20260901203004 98 271 7.0 13.0 0.00 0.00 0.00 54 1012.6
20260901202545 98 270 6.0 13.0 0.00 0.00 0.00 55 1012.6
20260901202501 98 270 6.0 13.0 0.00 0.00 0.00 55 1012.6
20260901202045 97 253 5.0 13.0 0.00 0.00 0.00 56 1012.6
20260901202002 97 253 5.0 13.0 0.00 0.00 0.00 56 1012.6
20260901201545 97 231 4.0 9.0 0.00 0.00 0.00 56 1012.6
20260901201502 97 232 4.0 9.0 0.00 0.00 0.00 56 1012.6
20260901201045 97 239 4.0 10.0 0.00 0.00 0.00 56 1012.6
20260901201001 97 240 4.0 10.0 0.00 0.00 0.00 56 1012.6
20260901200545 97 289 4.0 10.0 0.00 0.00 0.00 56 1012.6
20260901200501 97 289 4.0 10.0 0.00 0.00 0.00 56 1012.6
20260901200045 97 303 4.0 10.0 0.00 0.00 0.00 55 1012.6
20260901200002 97 302 4.0 10.0 0.00 0.00 0.00 55 1012.6
20260901195545 98 275 5.0 15.0 0.00 0.00 0.00 55 1012.8
20260901195523 98 275 5.0 15.0 0.00 0.00 0.00 55 1012.8
20260901195045 97 275 5.0 15.0 0.00 0.00 0.00 55 1012.8
20260901195001 97 275 5.0 15.0 0.00 0.00 0.00 55 1012.8
20260901194545 97 276 4.0 13.0 0.00 0.00 0.00 55 1012.8
20260901194502 97 276 4.0 10.0 0.00 0.00 0.00 55 1012.8
20260901194045 98 268 5.0 12.0 0.00 0.00 0.00 55 1012.8
20260901194002 98 268 5.0 12.0 0.00 0.00 0.00 55 1012.8
20260901193544 98 273 4.0 12.0 0.00 0.00 0.00 54 1012.9
20260901193501 98 273 4.0 12.0 0.00 0.00 0.00 54 1012.9
20260901193044 97 268 3.0 8.0 0.00 0.00 0.00 55 1012.9
20260901193022 97 268 3.0 8.0 0.00 0.00 0.00 55 1012.9
20260901192544 97 272 4.0 9.0 0.00 0.00 0.00 55 1012.9
20260901192505 97 272 4.0 9.0 0.00 0.00 0.00 55 1012.9
20260901192044 97 278 4.0 9.0 0.00 0.00 0.00 54 1012.8
20260901192002 97 278 4.0 9.0 0.00 0.00 0.00 54 1012.8
20260901191544 97 267 3.0 9.0 0.00 0.00 0.00 55 1012.9
20260901191501 97 267 3.0 9.0 0.00 0.00 0.00 55 1012.9
20260901191044 98 265 4.0 11.0 0.00 0.00 0.00 55 1012.9
20260901191002 98 265 4.0 11.0 0.00 0.00 0.00 55 1012.9
20260901190544 98 264 3.0 11.0 0.00 0.00 0.00 54 1012.8
20260901190502 98 264 3.0 11.0 0.00 0.00 0.00 54 1012.8
20260901190044 98 281 4.0 10.0 0.00 0.00 0.00 55 1012.8
20260901190005 98 281 4.0 10.0 0.00 0.00 0.00 55 1012.8
20260901185544 98 278 5.0 15.0 0.00 0.00 0.00 54 1012.7
20260901185501 98 277 5.0 15.0 0.00 0.00 0.00 54 1012.7
20260901185044 98 271 5.0 15.0 0.00 0.00 0.00 54 1012.8
20260901185002 98 271 5.0 15.0 0.00 0.00 0.00 54 1012.8
20260901184544 98 273 4.0 11.0 0.00 0.00 0.00 54 1012.7
20260901184502 98 272 4.0 11.0 0.00 0.00 0.00 54 1012.7
20260901184044 98 248 4.0 11.0 0.00 0.00 0.00 54 1012.6
20260901184001 98 248 4.0 11.0 0.00 0.00 0.00 54 1012.6
20260901183544 98 229 3.0 6.0 0.00 0.00 0.00 55 1012.7
20260901183502 98 229 3.0 6.0 0.00 0.00 0.00 55 1012.7
20260901183044 98 268 2.0 8.0 0.00 0.00 0.00 56 1012.6
20260901183002 98 267 2.0 8.0 0.00 0.00 0.00 56 1012.6
20260901182544 97 273 3.0 9.0 0.00 0.00 0.00 57 1012.6
20260901182502 97 272 3.0 9.0 0.00 0.00 0.00 57 1012.6
20260901182044 96 250 4.0 10.0 0.00 0.00 0.00 57 1012.7
20260901182002 96 249 4.0 10.0 0.00 0.00 0.00 57 1012.7
20260901181544 96 240 4.0 10.0 0.00 0.00 0.00 58 1012.8
20260901181502 96 241 4.0 10.0 0.00 0.00 0.00 58 1012.8
20260901181044 96 266 5.0 11.0 0.00 0.00 0.00 57 1012.7
20260901181023 96 267 5.0 11.0 0.00 0.00 0.00 57 1012.7
20260901180543 96 259 4.0 11.0 0.00 0.00 0.00 57 1012.7
20260901180502 96 260 4.0 11.0 0.00 0.00 0.00 57 1012.7
20260901180043 96 239 4.0 9.0 0.00 0.00 0.00 59 1012.8
20260901180023 96 239 4.0 9.0 0.00 0.00 0.00 59 1012.8
20260901175543 96 250 4.0 9.0 0.00 0.00 0.00 58 1012.8
20260901175502 96 250 4.0 9.0 0.00 0.00 0.00 58 1012.8
20260901175043 96 257 4.0 9.0 0.00 0.00 0.00 58 1012.8
20260901175001 96 257 4.0 9.0 0.00 0.00 0.00 58 1012.8
20260901174543 96 263 3.0 9.0 0.00 0.00 0.00 59 1012.8
20260901174502 96 263 3.0 9.0 0.00 0.00 0.00 59 1012.8
20260901174043 95 247 2.0 8.0 0.00 0.00 0.00 60 1012.9
20260901174007 95 247 2.0 8.0 0.00 0.00 0.00 60 1012.9
20260901173543 94 245 2.0 8.0 0.00 0.00 0.00 60 1013.1
20260901173502 94 245 2.0 8.0 0.00 0.00 0.00 60 1013.1
20260901173043 94 286 2.0 5.0 0.00 0.00 0.00 62 1013.1
20260901173005 94 287 2.0 5.0 0.00 0.00 0.00 61 1013.1
20260901172543 94 302 2.0 5.0 0.00 0.00 0.00 62 1013.2
20260901172523 94 301 2.0 5.0 0.00 0.00 0.00 62 1013.2
20260901172043 93 245 2.0 8.0 0.00 0.00 0.00 65 1013.1
20260901172023 93 245 2.0 8.0 0.00 0.00 0.00 65 1013.1
20260901171543 92 269 4.0 9.0 0.00 0.00 0.00 63 1013.2
20260901171502 92 269 4.0 9.0 0.00 0.00 0.00 63 1013.2
20260901171043 91 280 4.0 9.0 0.00 0.00 0.00 65 1013.4
20260901171002 91 280 4.0 9.0 0.00 0.00 0.00 65 1013.4
20260901170543 90 268 4.0 9.0 0.00 0.00 0.00 66 1013.4
20260901170502 90 267 4.0 9.0 0.00 0.00 0.00 66 1013.4
20260901170043 88 225 3.0 9.0 0.00 0.00 0.00 69 1013.5
20260901170002 88 224 3.0 9.0 0.00 0.00 0.00 69 1013.5
20260901165543 88 94 2.0 4.0 0.00 0.00 0.00 72 1013.6
20260901165502 88 94 2.0 4.0 0.00 0.00 0.00 72 1013.6
20260901165042 89 53 2.0 4.0 0.00 0.00 0.00 71 1013.7
20260901165001 89 51 2.0 4.0 0.00 0.00 0.00 71 1013.7
20260901164542 89 318 2.0 4.0 0.00 0.00 0.00 70 1013.9
20260901164502 89 317 2.0 4.0 0.00 0.00 0.00 70 1013.9
20260901164042 89 252 2.0 7.0 0.00 0.00 0.00 70 1014.0
20260901164002 89 250 2.0 7.0 0.00 0.00 0.00 70 1014.0
20260901163542 88 151 2.0 7.0 0.00 0.00 0.00 70 1014.1
20260901163502 88 151 2.0 7.0 0.00 0.00 0.00 70 1014.1
20260901163042 89 147 2.0 5.0 0.00 0.00 0.00 69 1014.1
20260901163002 89 147 2.0 5.0 0.00 0.00 0.00 69 1014.1
20260901162542 90 162 1.0 5.0 0.00 0.00 0.00 70 1014.1
20260901162502 90 162 1.0 5.0 0.00 0.00 0.00 70 1014.1
20260901162042 90 240 2.0 8.0 0.00 0.00 0.00 66 1014.0
20260901162002 90 242 2.0 9.0 0.00 0.00 0.00 66 1014.0
20260901161542 90 266 3.0 9.0 0.00 0.00 0.00 67 1014.0
20260901161502 90 266 3.0 9.0 0.00 0.00 0.00 67 1014.0
20260901161042 90 264 2.0 9.0 0.00 0.00 0.00 68 1014.0
20260901161002 90 264 2.0 9.0 0.00 0.00 0.00 68 1014.0
20260901160542 89 257 3.0 9.0 0.00 0.00 0.00 69 1014.2
20260901160502 89 257 3.0 9.0 0.00 0.00 0.00 69 1014.2
20260901160042 88 259 3.0 9.0 0.00 0.00 0.00 70 1014.3
20260901160002 88 259 3.0 9.0 0.00 0.00 0.00 70 1014.3
20260901155542 88 254 2.0 7.0 0.00 0.00 0.00 71 1014.2
20260901155502 88 255 2.0 7.0 0.00 0.00 0.00 71 1014.2
20260901155042 87 288 2.0 7.0 0.00 0.00 0.00 71 1014.2
20260901155002 87 289 2.0 7.0 0.00 0.00 0.00 71 1014.2
20260901154542 87 308 3.0 6.0 0.00 0.00 0.00 71 1014.3
20260901154501 87 308 3.0 6.0 0.00 0.00 0.00 72 1014.3
20260901154041 86 296 3.0 9.0 0.00 0.00 0.00 72 1014.4
20260901154002 86 296 3.0 9.0 0.00 0.00 0.00 72 1014.4
20260901153541 86 281 2.0 9.0 0.00 0.00 0.00 73 1014.3
20260901153502 86 280 2.0 9.0 0.00 0.00 0.00 73 1014.3
20260901153041 85 270 2.0 6.0 0.00 0.00 0.00 74 1014.2
20260901153002 85 270 2.0 6.0 0.00 0.00 0.00 74 1014.2
20260901152541 85 266 3.0 7.0 0.00 0.00 0.00 74 1014.3
20260901152502 85 266 3.0 7.0 0.00 0.00 0.00 74 1014.3
20260901152041 84 283 3.0 7.0 0.00 0.00 0.00 74 1014.2
20260901152002 84 283 3.0 7.0 0.00 0.00 0.00 74 1014.2
20260901151541 84 298 3.0 6.0 0.00 0.00 0.00 74 1014.3
20260901151504 84 299 3.0 6.0 0.00 0.00 0.00 74 1014.3
20260901151041 84 289 3.0 8.0 0.00 0.00 0.00 75 1014.5
20260901151002 84 289 3.0 8.0 0.00 0.00 0.00 75 1014.5
20260901150541 84 278 3.0 8.0 0.00 0.00 0.00 74 1014.5
20260901150502 84 278 3.0 8.0 0.00 0.00 0.00 74 1014.5
20260901150041 84 278 3.0 7.0 0.00 0.00 0.00 74 1014.6
20260901150001 84 278 3.0 7.0 0.00 0.00 0.00 74 1014.6
20260901145541 84 268 3.0 9.0 0.00 0.00 0.00 75 1014.6
20260901145523 84 268 3.0 9.0 0.00 0.00 0.00 75 1014.6
20260901145041 84 251 3.0 9.0 0.00 0.00 0.00 75 1014.6
20260901145023 84 251 3.0 9.0 0.00 0.00 0.00 75 1014.6
20260901144541 84 244 2.0 6.0 0.00 0.00 0.00 76 1014.5
20260901144502 84 244 2.0 6.0 0.00 0.00 0.00 76 1014.5
20260901144041 83 261 2.0 5.0 0.00 0.00 0.00 76 1014.3
20260901144002 83 261 2.0 5.0 0.00 0.00 0.00 76 1014.3
20260901143541 83 262 2.0 6.0 0.00 0.00 0.00 76 1014.4
20260901143502 83 262 2.0 6.0 0.00 0.00 0.00 76 1014.4
20260901143040 83 254 3.0 7.0 0.00 0.00 0.00 76 1014.5
20260901143002 83 254 3.0 7.0 0.00 0.00 0.00 76 1014.5
20260901142540 83 275 4.0 9.0 0.00 0.00 0.00 76 1014.4
20260901142501 83 275 4.0 9.0 0.00 0.00 0.00 76 1014.4
20260901142040 83 288 5.0 9.0 0.00 0.00 0.00 76 1014.4
20260901142002 83 288 5.0 9.0 0.00 0.00 0.00 76 1014.4
20260901141540 83 284 4.0 8.0 0.00 0.00 0.00 76 1014.4
20260901141502 83 284 4.0 8.0 0.00 0.00 0.00 76 1014.4
20260901141040 83 265 4.0 8.0 0.00 0.00 0.00 75 1014.2
20260901141002 83 265 4.0 8.0 0.00 0.00 0.00 75 1014.2
20260901140540 83 252 3.0 7.0 0.00 0.00 0.00 76 1014.1
20260901140502 83 252 3.0 7.0 0.00 0.00 0.00 76 1014.1
20260901140040 83 265 4.0 8.0 0.00 0.00 0.00 76 1014.1
20260901140002 83 265 4.0 8.0 0.00 0.00 0.00 76 1014.1
20260901135540 82 269 4.0 8.0 0.00 0.00 0.00 77 1014.1
20260901135501 82 269 4.0 8.0 0.00 0.00 0.00 77 1014.1
20260901135040 82 260 3.0 8.0 0.00 0.00 0.00 77 1014.1
20260901135002 82 260 3.0 8.0 0.00 0.00 0.00 77 1014.1
20260901134540 82 262 4.0 9.0 0.00 0.00 0.00 78 1014.2
20260901134502 82 262 4.0 9.0 0.00 0.00 0.00 78 1014.2
20260901134040 82 276 4.0 9.0 0.00 0.00 0.00 78 1014.2
20260901134002 82 276 4.0 10.0 0.00 0.00 0.00 78 1014.2
20260901133540 81 278 4.0 10.0 0.00 0.00 0.00 78 1014.3
20260901133523 81 278 4.0 10.0 0.00 0.00 0.00 78 1014.3
20260901133040 81 277 3.0 10.0 0.00 0.00 0.00 78 1014.2
20260901133023 81 277 3.0 10.0 0.00 0.00 0.00 78 1014.2
20260901132539 81 286 2.0 6.0 0.00 0.00 0.00 79 1014.2
20260901132502 81 286 2.0 6.0 0.00 0.00 0.00 79 1014.2
20260901132039 81 277 2.0 4.0 0.00 0.00 0.00 79 1014.2
20260901132002 80 278 2.0 4.0 0.00 0.00 0.00 79 1014.2
20260901131539 80 266 2.0 7.0 0.00 0.00 0.00 80 1014.2
20260901131503 80 266 2.0 7.0 0.00 0.00 0.00 80 1014.2
20260901131039 80 273 2.0 7.0 0.00 0.00 0.00 80 1014.3
20260901131003 80 273 2.0 7.0 0.00 0.00 0.00 80 1014.3
20260901130539 80 264 2.0 7.0 0.00 0.00 0.00 80 1014.3
20260901130502 80 264 2.0 7.0 0.00 0.00 0.00 80 1014.3
20260901130039 80 269 2.0 8.0 0.00 0.00 0.00 81 1014.4
20260901130003 80 269 2.0 8.0 0.00 0.00 0.00 81 1014.4
20260901125539 80 272 3.0 9.0 0.00 0.00 0.00 81 1014.3
20260901125502 80 272 3.0 9.0 0.00 0.00 0.00 81 1014.3
20260901125039 79 262 3.0 9.0 0.00 0.00 0.00 82 1014.4
20260901125002 79 262 3.0 9.0 0.00 0.00 0.00 82 1014.4
20260901124539 79 262 3.0 8.0 0.00 0.00 0.00 83 1014.4
20260901124502 79 262 3.0 8.0 0.00 0.00 0.00 83 1014.4
20260901124039 78 262 2.0 8.0 0.00 0.00 0.00 84 1014.5
20260901124002 78 262 2.0 8.0 0.00 0.00 0.00 84 1014.5
20260901123539 77 262 3.0 7.0 0.00 0.00 0.00 85 1014.4
20260901123503 77 262 3.0 7.0 0.00 0.00 0.00 85 1014.4